sat.trackr.live / text

‹ back to catalog

ASTRA 1KR

NORAD 29055 · 2006-012A

PAYLOAD ACTIVE UNKNOWN

§ Identity

Operator
Country
SES
Launch date
2006-04-20
Launch site
AFETR
Launch vehicle
Mass (kg)
RCS (m²)
14.43

Purposes: comms

External: N2YO · Heavens-Above · Gunter

§ Orbital elements

Epoch: 2026-09-13T01:58:13.146240Z

Period
1,436.08 min
Inclination
0.6951°
Eccentricity
0.0003448
Mean motion
1.00273285 rev/d
Perigee alt
35,771.6 km
Apogee alt
35,800.7 km
Semi-major
42,164.3 km
B*
0.0000e+0
RAAN
82.7045°
Arg perigee
90.9950°
Mean anomaly
226.9301°
Rev number
4,657

§ Raw data

ASTRA 1KR1 29055U 06012A   26256.08209660  .00000107  00000+0  00000+0 0  99982 29055   0.6951  82.7045 0003448  90.9950 226.9301  1.00273285 46574

JSON: /api/v1/satellites/29055 · /tle

For live sub-satellite position, see the globe view (requires WebGL).

§ Visibility from observer

Set your observer location to see the next 7 days of passes ≥ 10°. The values pass through the URL so the page stays shareable.

No JS? Fill the form by hand. The geolocation button needs JavaScript.